AAL1441 KDFW-KLGA

Flight info

Callsign AAL1441
Flight time N/A
Altitude 33000
Route FORCK3 FORCK ELD IZAAC Q30 VLKNN THRSR TWOUP Q22 BURGG Q60 HURTS PROUD2
Aircraft A321/M-SDE3FGHIRWY/LB1

Departure

Time 2026-05-04 19:21
Airport Dallas Fort Worth International Airport (KDFW)

Arrival

Time N/A
Airport LaGuardia Airport (KLGA)
Time Latitude Longitude Altitude Speed Heading
2026-05-04 18:53 32.89985 -97.03612 628 ft 0 kts 217°
2026-05-04 19:06 32.89988 -97.03610 632 ft 2 kts 217°
2026-05-04 19:06 32.90003 -97.03596 626 ft 3 kts 217°
2026-05-04 19:06 32.90017 -97.03583 627 ft 3 kts 210°
2026-05-04 19:07 32.90034 -97.03575 629 ft 3 kts 175°
2026-05-04 19:07 32.90052 -97.03582 626 ft 3 kts 145°
2026-05-04 19:07 32.90059 -97.03588 623 ft 0 kts 142°
2026-05-04 19:15 32.90056 -97.03585 615 ft 1 kts 142°
2026-05-04 19:15 32.90043 -97.03572 627 ft 5 kts 142°
2026-05-04 19:15 32.89996 -97.03529 623 ft 14 kts 142°
2026-05-04 19:16 32.89915 -97.03455 615 ft 15 kts 142°
2026-05-04 19:16 32.89893 -97.03346 620 ft 14 kts 73°
2026-05-04 19:16 32.89986 -97.03315 623 ft 19 kts
2026-05-04 19:16 32.90145 -97.03313 623 ft 24 kts
2026-05-04 19:17 32.90309 -97.03312 621 ft 23 kts
2026-05-04 19:17 32.90471 -97.03312 619 ft 23 kts
2026-05-04 19:17 32.90631 -97.03312 623 ft 23 kts
2026-05-04 19:17 32.90790 -97.03311 622 ft 23 kts
2026-05-04 19:18 32.90893 -97.03305 622 ft 12 kts 26°
2026-05-04 19:18 32.90912 -97.03214 623 ft 11 kts 71°
2026-05-04 19:18 32.90983 -97.03186 621 ft 12 kts
2026-05-04 19:18 32.91067 -97.03185 619 ft 12 kts
2026-05-04 19:19 32.91154 -97.03185 615 ft 13 kts
2026-05-04 19:19 32.91244 -97.03184 620 ft 13 kts
2026-05-04 19:19 32.91336 -97.03185 618 ft 13 kts 359°
2026-05-04 19:19 32.91405 -97.03170 624 ft 10 kts 44°
2026-05-04 19:20 32.91417 -97.03092 622 ft 10 kts 90°
2026-05-04 19:20 32.91416 -97.03014 616 ft 8 kts 91°
2026-05-04 19:20 32.91380 -97.02992 623 ft 6 kts 178°
2026-05-04 19:20 32.91325 -97.02991 622 ft 19 kts 180°
2026-05-04 19:21 32.90965 -97.02995 623 ft 83 kts 180°
2026-05-04 19:21 32.90202 -97.02998 616 ft 134 kts 180°
2026-05-04 19:21 32.89126 -97.02997 688 ft 168 kts 180°
2026-05-04 19:21 32.88018 -97.03017 1544 ft 151 kts 182°
2026-05-04 19:22 32.86959 -97.03015 2160 ft 153 kts 180°
2026-05-04 19:22 32.85861 -97.03002 2511 ft 170 kts 181°
2026-05-04 19:22 32.84606 -97.02994 2774 ft 192 kts 180°
2026-05-04 19:22 32.83191 -97.02987 3053 ft 213 kts 180°
2026-05-04 19:23 32.81679 -97.02980 3639 ft 220 kts 182°
2026-05-04 19:23 32.80116 -97.02979 4194 ft 226 kts 185°
2026-05-04 19:23 32.78544 -97.02998 4830 ft 225 kts 188°
2026-05-04 19:23 32.76984 -97.03034 5407 ft 223 kts 187°
2026-05-04 19:24 32.75439 -97.03098 5956 ft 223 kts 188°
2026-05-04 19:24 32.73877 -97.02932 6438 ft 231 kts 169°
2026-05-04 19:24 32.72442 -97.01999 6914 ft 242 kts 146°
2026-05-04 19:24 32.71289 -97.00501 7359 ft 250 kts 128°
2026-05-04 19:25 32.70462 -96.98672 7832 ft 255 kts 116°
2026-05-04 19:25 32.70198 -96.97798 8025 ft 257 kts 110°